,,,PA_Meas_PMT16A,,PR_Meas_QMR101_102,,RH_Meas_QMH101,,SR_Meas_QMS101,,TA_Meas_QMH101,,GenWind,,GenWind,
date,time,status,PA,status,PR,status,RH,status,SR,status,TA,status,DirAvg,status,SpdAvg,
2012-11-16, 00:00:05,VALID,1011.07,VALID,0,VALID,104,VALID,0,VALID,23.5381,VALID,58,VALID,0,
2012-11-16, 00:01:05,VALID,1011.04,VALID,0,VALID,104,VALID,0,VALID,23.5169,VALID,58,VALID,0,
2012-11-16, 00:02:05,VALID,1011.04,VALID,0,VALID,104,VALID,0,VALID,23.5381,VALID,58,VALID,0,
2012-11-16, 00:03:05,VALID,1011.03,VALID,0,VALID,104,VALID,0,VALID,23.4992,VALID,59,VALID,0,
2012-11-16, 00:04:05,VALID,1011.03,VALID,0,VALID,104,VALID,0,VALID,23.4992,VALID,58,VALID,0,
2012-11-16, 00:05:05,VALID,1011.01,VALID,0,VALID,104,VALID,0,VALID,23.4992,VALID,58,VALID,0,
2012-11-16, 00:06:05,VALID,1010.97,VALID,0,VALID,104,VALID,0,VALID,23.4992,VALID,58,VALID,0,
2012-11-16, 00:07:05,VALID,1010.92,VALID,0,VALID,104,VALID,0,VALID,23.4992,VALID,58,VALID,0,
2012-11-16, 00:08:05,VALID,1010.95,VALID,0,VALID,104,VALID,0,VALID,23.4992,VALID,58,VALID,0,
2012-11-16, 00:09:05,VALID,1010.94,VALID,0,VALID,104,VALID,0,VALID,23.5186,VALID,58,VALID,0,
2012-11-16, 00:10:05,VALID,1010.91,VALID,0,VALID,104,VALID,0,VALID,23.4992,VALID,58,VALID,0,
2012-11-16, 00:11:05,VALID,1010.91,VALID,0,VALID,104,VALID,0,VALID,23.4992,VALID,58,VALID,0,
2012-11-16, 00:12:05,VALID,1010.94,VALID,0,VALID,104,VALID,0,VALID,23.5186,VALID,58,VALID,0.242578,
2012-11-16, 00:13:05,VALID,1010.91,VALID,0,VALID,104,VALID,0,VALID,23.4992,VALID,58,VALID,0.277344,
2012-11-16, 00:14:05,VALID,1010.94,VALID,0,VALID,104,VALID,0,VALID,23.4992,VALID,58,VALID,0.217578,
2012-11-16, 00:15:05,VALID,1010.93,VALID,0,VALID,104,VALID,0,VALID,23.4779,VALID,58,VALID,0.237109,
2012-11-16, 00:16:05,VALID,1010.98,VALID,0,VALID,104,VALID,0,VALID,23.4779,VALID,58,VALID,0.314844,
2012-11-16, 00:17:05,VALID,1010.95,VALID,0,VALID,104,VALID,0,VALID,23.4602,VALID,58,VALID,0.141016,
2012-11-16, 00:18:05,VALID,1010.97,VALID,0,VALID,104,VALID,0,VALID,23.4797,VALID,58,VALID,0,
2012-11-16, 00:19:05,VALID,1010.95,VALID,0,VALID,104,VALID,0,VALID,23.4584,VALID,58,VALID,0,
2012-11-16, 00:20:05,VALID,1010.96,VALID,0,VALID,104,VALID,0,VALID,23.4797,VALID,58,VALID,0.161719,
2012-11-16, 00:21:05,VALID,1010.94,VALID,0,VALID,104,VALID,0,VALID,23.4584,VALID,59,VALID,0.0453125,
2012-11-16, 00:22:05,VALID,1010.94,VALID,0,VALID,104,VALID,0,VALID,23.4602,VALID,59,VALID,0.105859,
2012-11-16, 00:23:05,VALID,1010.95,VALID,0,VALID,104,VALID,0,VALID,23.4602,VALID,58,VALID,0,
2012-11-16, 00:24:05,VALID,1010.95,VALID,0,VALID,104,VALID,0,VALID,23.4602,VALID,59,VALID,0,
2012-11-16, 00:25:05,VALID,1010.96,VALID,0,VALID,104,VALID,0,VALID,23.4602,VALID,58,VALID,0,
2012-11-16, 00:26:05,VALID,1010.93,VALID,0,VALID,104,VALID,0,VALID,23.4602,VALID,58,VALID,0,
2012-11-16, 00:27:05,VALID,1010.91,VALID,0,VALID,104,VALID,0,VALID,23.4389,VALID,58,VALID,0,
2012-11-16, 00:28:05,VALID,1010.91,VALID,0,VALID,104,VALID,0,VALID,23.4602,VALID,58,VALID,0.0847656,
2012-11-16, 00:29:05,VALID,1010.89,VALID,0,VALID,104,VALID,0,VALID,23.4602,VALID,58,VALID,0,
2012-11-16, 00:30:05,VALID,1010.87,VALID,0,VALID,104,VALID,0,VALID,23.4194,VALID,58,VALID,0,
2012-11-16, 00:31:05,VALID,1010.86,VALID,0,VALID,104,VALID,0,VALID,23.4194,VALID,58,VALID,0,
2012-11-16, 00:32:05,VALID,1010.87,VALID,0,VALID,104,VALID,0,VALID,23.4602,VALID,58,VALID,0,
2012-11-16, 00:33:05,VALID,1010.82,VALID,0,VALID,104,VALID,0,VALID,23.4602,VALID,58,VALID,0,
2012-11-16, 00:34:05,VALID,1010.82,VALID,0,VALID,104,VALID,0,VALID,23.4797,VALID,58,VALID,0,
2012-11-16, 00:35:05,VALID,1010.78,VALID,0,VALID,104,VALID,0,VALID,23.4602,VALID,58,VALID,0,
2012-11-16, 00:36:05,VALID,1010.77,VALID,0,VALID,104,VALID,0,VALID,23.4602,VALID,58,VALID,0,
2012-11-16, 00:37:05,VALID,1010.77,VALID,0,VALID,104,VALID,0,VALID,23.4407,VALID,58,VALID,0,
2012-11-16, 00:38:05,VALID,1010.7,VALID,0,VALID,104,VALID,0,VALID,23.4194,VALID,58,VALID,0,
2012-11-16, 00:39:05,VALID,1010.67,VALID,0,VALID,104,VALID,0,VALID,23.4194,VALID,58,VALID,0,
2012-11-16, 00:40:05,VALID,1010.68,VALID,0,VALID,104,VALID,0,VALID,23.4602,VALID,58,VALID,0,
2012-11-16, 00:41:05,VALID,1010.67,VALID,0,VALID,104,VALID,0,VALID,23.4194,VALID,58,VALID,0,
2012-11-16, 00:42:05,VALID,1010.66,VALID,0,VALID,104,VALID,0,VALID,23.4584,VALID,58,VALID,0.0753906,
2012-11-16, 00:43:05,VALID,1010.68,VALID,0,VALID,104,VALID,0,VALID,23.4992,VALID,58,VALID,0,
2012-11-16, 00:44:05,VALID,1010.65,VALID,0,VALID,104,VALID,0,VALID,23.5186,VALID,58,VALID,0.00859375,
2012-11-16, 00:45:05,VALID,1010.66,VALID,0,VALID,104,VALID,0,VALID,23.5186,VALID,58,VALID,0,
2012-11-16, 00:46:05,VALID,1010.64,VALID,0,VALID,104,VALID,0,VALID,23.5186,VALID,58,VALID,0.328906,
2012-11-16, 00:47:05,VALID,1010.66,VALID,0,VALID,104,VALID,0,VALID,23.5169,VALID,58,VALID,0.201562,
2012-11-16, 00:48:05,VALID,1010.63,VALID,0,VALID,104,VALID,0,VALID,23.5381,VALID,58,VALID,0.278906,
2012-11-16, 00:49:05,VALID,1010.63,VALID,0,VALID,104,VALID,0,VALID,23.5381,VALID,58,VALID,0.563281,
2012-11-16, 00:50:05,VALID,1010.62,VALID,0,VALID,104,VALID,0,VALID,23.5186,VALID,58,VALID,0.480469,
2012-11-16, 00:51:05,VALID,1010.66,VALID,0,VALID,104,VALID,0,VALID,23.5381,VALID,58,VALID,0.390234,
2012-11-16, 00:52:05,VALID,1010.64,VALID,0,VALID,104,VALID,0,VALID,23.4992,VALID,58,VALID,0.321484,
2012-11-16, 00:53:05,VALID,1010.67,VALID,0,VALID,104,VALID,0,VALID,23.4974,VALID,58,VALID,0.312891,
2012-11-16, 00:54:05,VALID,1010.64,VALID,0,VALID,104,VALID,0,VALID,23.4992,VALID,58,VALID,0.390625,
2012-11-16, 00:55:05,VALID,1010.6,VALID,0,VALID,104,VALID,0,VALID,23.5009,VALID,58,VALID,0.192578,
2012-11-16, 00:56:05,VALID,1010.6,VALID,0,VALID,104,VALID,0,VALID,23.4992,VALID,58,VALID,0.191797,
2012-11-16, 00:57:05,VALID,1010.57,VALID,0,VALID,104,VALID,0,VALID,23.4779,VALID,58,VALID,0.149609,
2012-11-16, 00:58:05,VALID,1010.58,VALID,0,VALID,104,VALID,0,VALID,23.4992,VALID,58,VALID,0.492188,
2012-11-16, 00:59:05,VALID,1010.57,VALID,0,VALID,104,VALID,0,VALID,23.4584,VALID,59,VALID,0.278906,
2012-11-16, 01:00:05,VALID,1010.52,VALID,0,VALID,104,VALID,0,VALID,23.4602,VALID,58,VALID,0.0820313,
2012-11-16, 01:01:05,VALID,1010.52,VALID,0,VALID,104,VALID,0,VALID,23.4797,VALID,58,VALID,0.357422,
2012-11-16, 01:02:05,VALID,1010.52,VALID,0,VALID,104,VALID,0,VALID,23.4797,VALID,58,VALID,0.0117188,
2012-11-16, 01:03:05,VALID,1010.5,VALID,0,VALID,104,VALID,0,VALID,23.4797,VALID,58,VALID,0.133984,
2012-11-16, 01:04:05,VALID,1010.49,VALID,0,VALID,104,VALID,0,VALID,23.4992,VALID,58,VALID,0.20625,
2012-11-16, 01:05:05,VALID,1010.52,VALID,0,VALID,104,VALID,0,VALID,23.4992,VALID,58,VALID,0.351953,
2012-11-16, 01:06:05,VALID,1010.46,VALID,0,VALID,104,VALID,0,VALID,23.4779,VALID,58,VALID,0.0621094,
2012-11-16, 01:07:05,VALID,1010.44,VALID,0,VALID,104,VALID,0,VALID,23.5186,VALID,58,VALID,0.422656,
2012-11-16, 01:08:05,VALID,1010.43,VALID,0,VALID,104,VALID,0,VALID,23.4797,VALID,58,VALID,0,
2012-11-16, 01:09:05,VALID,1010.4,VALID,0,VALID,104,VALID,0,VALID,23.4797,VALID,59,VALID,0.198047,
2012-11-16, 01:10:05,VALID,1010.39,VALID,0,VALID,104,VALID,0,VALID,23.4797,VALID,58,VALID,0,
2012-11-16, 01:11:05,VALID,1010.36,VALID,0,VALID,104,VALID,0,VALID,23.4797,VALID,58,VALID,0,
2012-11-16, 01:12:05,VALID,1010.38,VALID,0,VALID,104,VALID,0,VALID,23.4797,VALID,58,VALID,0.00078125,
2012-11-16, 01:13:05,VALID,1010.34,VALID,0,VALID,104,VALID,0,VALID,23.4797,VALID,56,VALID,0.332031,
2012-11-16, 01:14:05,VALID,1010.38,VALID,0,VALID,104,VALID,0,VALID,23.4797,VALID,50,VALID,0.317578,
2012-11-16, 01:15:05,VALID,1010.32,VALID,0,VALID,104,VALID,0,VALID,23.4407,VALID,50,VALID,0.582812,
2012-11-16, 01:16:05,VALID,1010.32,VALID,0,VALID,104,VALID,0,VALID,23.4389,VALID,50,VALID,0.246484,
2012-11-16, 01:17:05,VALID,1010.28,VALID,0,VALID,104,VALID,0,VALID,23.4602,VALID,56,VALID,0.504687,
2012-11-16, 01:18:05,VALID,1010.26,VALID,0,VALID,104,VALID,0,VALID,23.4602,VALID,51,VALID,0.793359,
2012-11-16, 01:19:05,VALID,1010.26,VALID,0,VALID,104,VALID,0,VALID,23.4602,VALID,51,VALID,0.328125,
2012-11-16, 01:20:05,VALID,1010.25,VALID,0,VALID,104,VALID,0,VALID,23.4602,VALID,51,VALID,0.404297,
2012-11-16, 01:21:05,VALID,1010.22,VALID,0,VALID,104,VALID,0,VALID,23.4602,VALID,51,VALID,0.255859,
2012-11-16, 01:22:05,VALID,1010.24,VALID,0,VALID,104,VALID,0,VALID,23.4407,VALID,51,VALID,0.3125,
2012-11-16, 01:23:05,VALID,1010.2,VALID,0,VALID,104,VALID,0,VALID,23.4407,VALID,51,VALID,0.148828,
2012-11-16, 01:24:05,VALID,1010.19,VALID,0,VALID,104,VALID,0,VALID,23.4407,VALID,51,VALID,0.0464844,
2012-11-16, 01:25:05,VALID,1010.16,VALID,0,VALID,104,VALID,0,VALID,23.4602,VALID,51,VALID,0,
2012-11-16, 01:26:05,VALID,1010.15,VALID,0,VALID,104,VALID,0,VALID,23.4407,VALID,51,VALID,0.106641,
2012-11-16, 01:27:05,VALID,1010.16,VALID,0,VALID,104,VALID,0,VALID,23.4584,VALID,50,VALID,0.273047,
2012-11-16, 01:28:05,VALID,1010.13,VALID,0,VALID,104,VALID,0,VALID,23.4797,VALID,68,VALID,0.571875,
2012-11-16, 01:29:05,VALID,1010.16,VALID,0,VALID,104,VALID,0,VALID,23.4779,VALID,68,VALID,0.535156,
2012-11-16, 01:30:05,VALID,1010.16,VALID,0,VALID,104,VALID,0,VALID,23.5186,VALID,90,VALID,0.528125,
2012-11-16, 01:31:05,VALID,1010.18,VALID,0,VALID,104,VALID,0,VALID,23.5381,VALID,90,VALID,0.282422,
2012-11-16, 01:32:05,VALID,1010.17,VALID,0,VALID,104,VALID,0,VALID,23.5363,VALID,90,VALID,0.320313,
2012-11-16, 01:33:05,VALID,1010.16,VALID,0,VALID,104,VALID,0,VALID,23.5363,VALID,90,VALID,0.270703,
2012-11-16, 01:34:05,VALID,1010.15,VALID,0,VALID,104,VALID,0,VALID,23.5558,VALID,90,VALID,0.549219,
2012-11-16, 01:35:05,VALID,1010.15,VALID,0,VALID,104,VALID,0,VALID,23.5576,VALID,69,VALID,1.03906,
2012-11-16, 01:36:05,VALID,1010.14,VALID,0,VALID,104,VALID,0,VALID,23.5576,VALID,76,VALID,0.751953,
2012-11-16, 01:37:05,VALID,1010.15,VALID,0,VALID,104,VALID,0,VALID,23.5771,VALID,75,VALID,0.801172,
2012-11-16, 01:38:05,VALID,1010.15,VALID,0,VALID,104,VALID,0,VALID,23.5576,VALID,62,VALID,1.36016,
2012-11-16, 01:39:05,VALID,1010.15,VALID,0,VALID,104,VALID,0,VALID,23.5771,VALID,75,VALID,0.859766,
2012-11-16, 01:40:05,VALID,1010.14,VALID,0,VALID,104,VALID,0,VALID,23.5771,VALID,73,VALID,0.867188,
2012-11-16, 01:41:05,VALID,1010.15,VALID,0,VALID,104,VALID,0,VALID,23.5558,VALID,67,VALID,0.733984,
2012-11-16, 01:42:05,VALID,1010.12,VALID,0,VALID,104,VALID,0,VALID,23.5771,VALID,73,VALID,1.42578,
2012-11-16, 01:43:05,VALID,1010.11,VALID,0,VALID,104,VALID,0,VALID,23.5771,VALID,68,VALID,1.01719,
2012-11-16, 01:44:05,VALID,1010.07,VALID,0,VALID,104,VALID,0,VALID,23.5771,VALID,48,VALID,0.765625,
2012-11-16, 01:45:05,VALID,1010.08,VALID,0,VALID,104,VALID,0,VALID,23.5576,VALID,59,VALID,0.519531,
2012-11-16, 01:46:05,VALID,1010.07,VALID,0,VALID,104,VALID,0,VALID,23.5576,VALID,79,VALID,1.23359,
2012-11-16, 01:47:05,VALID,1010.05,VALID,0,VALID,104,VALID,0,VALID,23.5576,VALID,67,VALID,0.575781,
2012-11-16, 01:48:05,VALID,1010.03,VALID,0,VALID,104,VALID,0,VALID,23.5576,VALID,47,VALID,0.407031,
2012-11-16, 01:49:05,VALID,1010.03,VALID,0,VALID,104,VALID,0,VALID,23.5169,VALID,32,VALID,0.845312,
2012-11-16, 01:50:05,VALID,1010.01,VALID,0,VALID,104,VALID,0,VALID,23.5381,VALID,47,VALID,0.508984,
2012-11-16, 01:51:05,VALID,1010.04,VALID,0,VALID,104,VALID,0,VALID,23.5363,VALID,68,VALID,0.533594,
2012-11-16, 01:52:05,VALID,1010.04,VALID,0,VALID,104,VALID,0,VALID,23.5186,VALID,76,VALID,0.482422,
2012-11-16, 01:53:05,VALID,1010.02,VALID,0,VALID,104,VALID,0,VALID,23.5186,VALID,76,VALID,0.370313,
2012-11-16, 01:54:05,VALID,1010.04,VALID,0,VALID,104,VALID,0,VALID,23.5169,VALID,75,VALID,0.486719,
2012-11-16, 01:55:05,VALID,1010.06,VALID,0,VALID,104,VALID,0,VALID,23.5381,VALID,72,VALID,0.557813,
2012-11-16, 01:56:05,VALID,1010.1,VALID,0,VALID,104,VALID,0,VALID,23.5381,VALID,61,VALID,0.598437,
2012-11-16, 01:57:05,VALID,1010.07,VALID,0,VALID,104,VALID,0,VALID,23.5186,VALID,61,VALID,0.539453,
2012-11-16, 01:58:05,VALID,1010.08,VALID,0,VALID,104,VALID,0,VALID,23.5186,VALID,61,VALID,0.360547,
2012-11-16, 01:59:05,VALID,1010.06,VALID,0,VALID,104,VALID,0,VALID,23.4992,VALID,35,VALID,0.575,
2012-11-16, 02:00:05,VALID,1010.06,VALID,0,VALID,104,VALID,0,VALID,23.4779,VALID,69,VALID,0.512109,
2012-11-16, 02:01:05,VALID,1010.03,VALID,0,VALID,104,VALID,0,VALID,23.4797,VALID,69,VALID,0.0125,
2012-11-16, 02:02:05,VALID,1010.03,VALID,0,VALID,104,VALID,0,VALID,23.4974,VALID,40,VALID,0.812109,
2012-11-16, 02:03:05,VALID,1010.05,VALID,0,VALID,104,VALID,0,VALID,23.4992,VALID,39,VALID,0.468359,
2012-11-16, 02:04:05,VALID,1010.04,VALID,0,VALID,104,VALID,0,VALID,23.4992,VALID,37,VALID,0.301562,
2012-11-16, 02:05:05,VALID,1010.06,VALID,0,VALID,104,VALID,0,VALID,23.4992,VALID,39,VALID,0.417969,
2012-11-16, 02:06:05,VALID,1010.04,VALID,0,VALID,104,VALID,0,VALID,23.4992,VALID,39,VALID,0.723437,
2012-11-16, 02:07:05,VALID,1010.05,VALID,0,VALID,104,VALID,0,VALID,23.4992,VALID,75,VALID,0.660937,
2012-11-16, 02:08:05,VALID,1010.03,VALID,0,VALID,104,VALID,0,VALID,23.4974,VALID,76,VALID,0.41875,
2012-11-16, 02:09:05,VALID,1010.04,VALID,0,VALID,104,VALID,0,VALID,23.5381,VALID,76,VALID,0.427734,
2012-11-16, 02:10:05,VALID,1010.03,VALID,0,VALID,104,VALID,0,VALID,23.5186,VALID,66,VALID,0.274609,
2012-11-16, 02:11:05,VALID,1010.03,VALID,0,VALID,104,VALID,0,VALID,23.4974,VALID,66,VALID,0.160156,
2012-11-16, 02:12:05,VALID,1010.03,VALID,0,VALID,104,VALID,0,VALID,23.5381,VALID,66,VALID,0,
2012-11-16, 02:13:05,VALID,1010,VALID,0,VALID,104,VALID,0,VALID,23.5186,VALID,66,VALID,0,
2012-11-16, 02:14:05,VALID,1010,VALID,0,VALID,104,VALID,0,VALID,23.4779,VALID,66,VALID,0.180859,
2012-11-16, 02:15:05,VALID,1009.97,VALID,0,VALID,104,VALID,0,VALID,23.4992,VALID,66,VALID,0.0871094,
2012-11-16, 02:16:05,VALID,1009.96,VALID,0,VALID,104,VALID,0,VALID,23.4797,VALID,66,VALID,0.135937,
2012-11-16, 02:17:05,VALID,1009.99,VALID,0,VALID,104,VALID,0,VALID,23.4797,VALID,66,VALID,0.305078,
2012-11-16, 02:18:05,VALID,1009.97,VALID,0,VALID,104,VALID,0,VALID,23.4797,VALID,39,VALID,0.458984,
2012-11-16, 02:19:05,VALID,1009.98,VALID,0,VALID,104,VALID,0,VALID,23.4602,VALID,41,VALID,0.462891,
2012-11-16, 02:20:05,VALID,1009.97,VALID,0,VALID,104,VALID,0,VALID,23.4389,VALID,41,VALID,0.409375,
2012-11-16, 02:21:05,VALID,1009.99,VALID,0,VALID,104,VALID,0,VALID,23.4602,VALID,41,VALID,0.657422,
2012-11-16, 02:22:05,VALID,1009.99,VALID,0,VALID,104,VALID,0,VALID,23.4602,VALID,55,VALID,0.673828,
2012-11-16, 02:23:05,VALID,1009.97,VALID,0,VALID,104,VALID,0,VALID,23.4602,VALID,58,VALID,0.589844,
2012-11-16, 02:24:05,VALID,1009.96,VALID,0,VALID,104,VALID,0,VALID,23.4797,VALID,86,VALID,0.791016,
2012-11-16, 02:25:05,VALID,1009.96,VALID,0,VALID,104,VALID,0,VALID,23.4797,VALID,79,VALID,0.796875,
2012-11-16, 02:26:05,VALID,1009.97,VALID,0,VALID,104,VALID,0,VALID,23.4797,VALID,76,VALID,0.760547,
2012-11-16, 02:27:05,VALID,1009.94,VALID,0,VALID,104,VALID,0,VALID,23.4992,VALID,85,VALID,0.753125,
2012-11-16, 02:28:05,VALID,1009.94,VALID,0,VALID,104,VALID,0,VALID,23.5186,VALID,61,VALID,0.726563,
2012-11-16, 02:29:05,VALID,1009.95,VALID,0,VALID,104,VALID,0,VALID,23.4974,VALID,59,VALID,0.2125,
2012-11-16, 02:30:05,VALID,1009.94,VALID,0,VALID,104,VALID,0,VALID,23.4779,VALID,60,VALID,0.641016,
2012-11-16, 02:31:05,VALID,1009.95,VALID,0,VALID,104,VALID,0,VALID,23.5186,VALID,66,VALID,0.583203,
2012-11-16, 02:32:05,VALID,1009.94,VALID,0,VALID,104,VALID,0,VALID,23.5186,VALID,67,VALID,0.348437,
2012-11-16, 02:33:05,VALID,1009.92,VALID,0,VALID,104,VALID,0,VALID,23.5186,VALID,67,VALID,0.498047,
2012-11-16, 02:34:05,VALID,1009.93,VALID,0,VALID,104,VALID,0,VALID,23.5186,VALID,73,VALID,0.634766,
2012-11-16, 02:35:05,VALID,1009.92,VALID,0,VALID,104,VALID,0,VALID,23.5186,VALID,70,VALID,0.455859,
2012-11-16, 02:36:05,VALID,1009.89,VALID,0,VALID,104,VALID,0,VALID,23.4779,VALID,70,VALID,0.355859,
2012-11-16, 02:37:04,VALID,1009.87,VALID,0,VALID,104,VALID,0,VALID,23.5186,VALID,69,VALID,0.482812,
2012-11-16, 02:38:04,VALID,1009.88,VALID,0,VALID,104,VALID,0,VALID,23.5186,VALID,69,VALID,0.371484,
2012-11-16, 02:39:04,VALID,1009.86,VALID,0,VALID,104,VALID,0,VALID,23.5186,VALID,69,VALID,0.215625,
2012-11-16, 02:40:04,VALID,1009.86,VALID,0,VALID,104,VALID,0,VALID,23.5186,VALID,69,VALID,0.0878906,
2012-11-16, 02:41:04,VALID,1009.85,VALID,0,VALID,104,VALID,0,VALID,23.4992,VALID,69,VALID,0.294531,
2012-11-16, 02:42:04,VALID,1009.85,VALID,0,VALID,104,VALID,0,VALID,23.4992,VALID,69,VALID,0,
2012-11-16, 02:43:04,VALID,1009.85,VALID,0,VALID,104,VALID,0,VALID,23.4797,VALID,69,VALID,0,
2012-11-16, 02:44:04,VALID,1009.87,VALID,0,VALID,104,VALID,0,VALID,23.4797,VALID,69,VALID,0,
2012-11-16, 02:45:04,VALID,1009.85,VALID,0,VALID,104,VALID,0,VALID,23.4797,VALID,69,VALID,0,
2012-11-16, 02:46:04,VALID,1009.84,VALID,0,VALID,104,VALID,0,VALID,23.4797,VALID,69,VALID,0,
2012-11-16, 02:47:04,VALID,1009.84,VALID,0,VALID,104,VALID,0,VALID,23.4797,VALID,69,VALID,0,
2012-11-16, 02:48:04,VALID,1009.81,VALID,0,VALID,104,VALID,0,VALID,23.4797,VALID,69,VALID,0.296484,
2012-11-16, 02:49:04,VALID,1009.8,VALID,0,VALID,104,VALID,0,VALID,23.4992,VALID,69,VALID,0.641016,
2012-11-16, 02:50:04,VALID,1009.76,VALID,0,VALID,104,VALID,0,VALID,23.4779,VALID,71,VALID,0.559766,
2012-11-16, 02:51:04,VALID,1009.76,VALID,0,VALID,104,VALID,0,VALID,23.4992,VALID,76,VALID,0.605859,
2012-11-16, 02:52:04,VALID,1009.75,VALID,0,VALID,104,VALID,0,VALID,23.4992,VALID,76,VALID,0.742969,
2012-11-16, 02:53:04,VALID,1009.74,VALID,0,VALID,104,VALID,0,VALID,23.4992,VALID,74,VALID,0.891406,
2012-11-16, 02:54:04,VALID,1009.75,VALID,0,VALID,104,VALID,0,VALID,23.5186,VALID,76,VALID,0.651563,
2012-11-16, 02:55:04,VALID,1009.73,VALID,0,VALID,104,VALID,0,VALID,23.5186,VALID,76,VALID,0.445703,
2012-11-16, 02:56:04,VALID,1009.76,VALID,0,VALID,104,VALID,0,VALID,23.4992,VALID,69,VALID,0.741797,
2012-11-16, 02:57:04,VALID,1009.73,VALID,0,VALID,104,VALID,0,VALID,23.5186,VALID,76,VALID,0.249609,
2012-11-16, 02:58:04,VALID,1009.75,VALID,0,VALID,104,VALID,0,VALID,23.4974,VALID,75,VALID,0.458203,
2012-11-16, 02:59:04,VALID,1009.73,VALID,0,VALID,104,VALID,0,VALID,23.4779,VALID,76,VALID,0.0308594,
2012-11-16, 03:00:04,VALID,1009.71,VALID,0,VALID,104,VALID,0,VALID,23.4992,VALID,76,VALID,0.499219,
2012-11-16, 03:01:04,VALID,1009.69,VALID,0,VALID,104,VALID,0,VALID,23.5186,VALID,76,VALID,0.125781,
2012-11-16, 03:02:04,VALID,1009.71,VALID,0,VALID,104,VALID,0,VALID,23.4992,VALID,76,VALID,0.167187,
2012-11-16, 03:03:04,VALID,1009.68,VALID,0,VALID,104,VALID,0,VALID,23.4992,VALID,76,VALID,0.196875,
2012-11-16, 03:04:04,VALID,1009.68,VALID,0,VALID,104,VALID,0,VALID,23.4992,VALID,76,VALID,0,
2012-11-16, 03:05:04,VALID,1009.68,VALID,0,VALID,104,VALID,0,VALID,23.4992,VALID,76,VALID,0.125391,
2012-11-16, 03:06:04,VALID,1009.65,VALID,0,VALID,104,VALID,0,VALID,23.4797,VALID,76,VALID,0,
2012-11-16, 03:07:04,VALID,1009.67,VALID,0,VALID,104,VALID,0,VALID,23.4584,VALID,76,VALID,0.0015625,
2012-11-16, 03:08:04,VALID,1009.63,VALID,0,VALID,104,VALID,0,VALID,23.4602,VALID,76,VALID,0,
2012-11-16, 03:09:04,VALID,1009.6,VALID,0,VALID,104,VALID,0,VALID,23.4797,VALID,76,VALID,0,
2012-11-16, 03:10:04,VALID,1009.63,VALID,0,VALID,104,VALID,0,VALID,23.4797,VALID,76,VALID,0,
2012-11-16, 03:11:04,VALID,1009.6,VALID,0,VALID,104,VALID,0,VALID,23.4797,VALID,76,VALID,0,
2012-11-16, 03:12:04,VALID,1009.59,VALID,0,VALID,104,VALID,0,VALID,23.4602,VALID,76,VALID,0,
2012-11-16, 03:13:04,VALID,1009.57,VALID,0,VALID,104,VALID,0,VALID,23.4602,VALID,76,VALID,0,
2012-11-16, 03:14:04,VALID,1009.56,VALID,0,VALID,104,VALID,0,VALID,23.4797,VALID,76,VALID,0,
2012-11-16, 03:15:04,VALID,1009.52,VALID,0,VALID,104,VALID,0,VALID,23.4797,VALID,76,VALID,0,
2012-11-16, 03:16:04,VALID,1009.52,VALID,0,VALID,104,VALID,0,VALID,23.4797,VALID,76,VALID,0,
2012-11-16, 03:17:04,VALID,1009.51,VALID,0,VALID,104,VALID,0,VALID,23.4602,VALID,76,VALID,0,
2012-11-16, 03:18:04,VALID,1009.47,VALID,0,VALID,104,VALID,0,VALID,23.4602,VALID,76,VALID,0.150781,
2012-11-16, 03:19:04,VALID,1009.47,VALID,0,VALID,104,VALID,0,VALID,23.4797,VALID,76,VALID,0,
2012-11-16, 03:20:04,VALID,1009.47,VALID,0,VALID,104,VALID,0,VALID,23.4602,VALID,76,VALID,0,
2012-11-16, 03:21:04,VALID,1009.48,VALID,0,VALID,104,VALID,0,VALID,23.4602,VALID,76,VALID,0,
2012-11-16, 03:22:04,VALID,1009.5,VALID,0,VALID,104,VALID,0,VALID,23.4797,VALID,76,VALID,0,
2012-11-16, 03:23:04,VALID,1009.51,VALID,0,VALID,104,VALID,0,VALID,23.4992,VALID,76,VALID,0.142578,
2012-11-16, 03:24:04,VALID,1009.51,VALID,0,VALID,104,VALID,0,VALID,23.4602,VALID,76,VALID,0.341406,
2012-11-16, 03:25:04,VALID,1009.51,VALID,0,VALID,104,VALID,0,VALID,23.4389,VALID,75,VALID,0.159375,
2012-11-16, 03:26:04,VALID,1009.48,VALID,0,VALID,104,VALID,0,VALID,23.4407,VALID,76,VALID,0.134375,
2012-11-16, 03:27:04,VALID,1009.48,VALID,0,VALID,104,VALID,0,VALID,23.4407,VALID,75,VALID,0.0304688,
2012-11-16, 03:28:04,VALID,1009.48,VALID,0,VALID,104,VALID,0,VALID,23.4407,VALID,76,VALID,0.142969,
2012-11-16, 03:29:04,VALID,1009.47,VALID,0,VALID,104,VALID,0,VALID,23.4407,VALID,75,VALID,0,
2012-11-16, 03:30:04,VALID,1009.47,VALID,0,VALID,104,VALID,0,VALID,23.4,VALID,75,VALID,0.219141,
2012-11-16, 03:31:04,VALID,1009.45,VALID,0,VALID,104,VALID,0,VALID,23.3823,VALID,75,VALID,0.104297,
2012-11-16, 03:32:04,VALID,1009.44,VALID,0,VALID,104,VALID,0,VALID,23.3805,VALID,75,VALID,0.0398437,
2012-11-16, 03:33:04,VALID,1009.43,VALID,0,VALID,104,VALID,0,VALID,23.3823,VALID,76,VALID,0,
2012-11-16, 03:34:04,VALID,1009.44,VALID,0,VALID,104,VALID,0,VALID,23.3628,VALID,75,VALID,0,
2012-11-16, 03:35:04,VALID,1009.46,VALID,0,VALID,104,VALID,0,VALID,23.3628,VALID,75,VALID,0,
2012-11-16, 03:36:04,VALID,1009.48,VALID,0,VALID,104,VALID,0,VALID,23.3415,VALID,75,VALID,0,
2012-11-16, 03:37:04,VALID,1009.46,VALID,0,VALID,104,VALID,0,VALID,23.3628,VALID,75,VALID,0,
2012-11-16, 03:38:04,VALID,1009.48,VALID,0,VALID,104,VALID,0,VALID,23.3026,VALID,75,VALID,0,
2012-11-16, 03:39:04,VALID,1009.47,VALID,0,VALID,104,VALID,0,VALID,23.3238,VALID,75,VALID,0,
2012-11-16, 03:40:04,VALID,1009.48,VALID,0,VALID,104,VALID,0,VALID,23.3026,VALID,75,VALID,0,
2012-11-16, 03:41:04,VALID,1009.48,VALID,0,VALID,104,VALID,0,VALID,23.3433,VALID,76,VALID,0,
2012-11-16, 03:42:04,VALID,1009.5,VALID,0,VALID,104,VALID,0,VALID,23.322,VALID,75,VALID,0,
2012-11-16, 03:43:04,VALID,1009.48,VALID,0,VALID,104,VALID,0,VALID,23.3628,VALID,75,VALID,0,
2012-11-16, 03:44:04,VALID,1009.51,VALID,0,VALID,104,VALID,0,VALID,23.3238,VALID,75,VALID,0,
2012-11-16, 03:45:04,VALID,1009.53,VALID,0,VALID,104,VALID,0,VALID,23.3026,VALID,75,VALID,0,
2012-11-16, 03:46:04,VALID,1009.51,VALID,0,VALID,104,VALID,0,VALID,23.3026,VALID,75,VALID,0,
2012-11-16, 03:47:04,VALID,1009.52,VALID,0,VALID,104,VALID,0,VALID,23.3823,VALID,75,VALID,0,
2012-11-16, 03:48:04,VALID,1009.49,VALID,0,VALID,104,VALID,0,VALID,23.4017,VALID,75,VALID,0,
2012-11-16, 03:49:04,VALID,1009.45,VALID,0,VALID,104,VALID,0,VALID,23.3433,VALID,76,VALID,0,
2012-11-16, 03:50:04,VALID,1009.44,VALID,0,VALID,104,VALID,0,VALID,23.3415,VALID,75,VALID,0,
2012-11-16, 03:51:04,VALID,1009.43,VALID,0,VALID,104,VALID,0,VALID,23.3628,VALID,76,VALID,0,
2012-11-16, 03:52:04,VALID,1009.41,VALID,0,VALID,104,VALID,0,VALID,23.4017,VALID,75,VALID,0,
2012-11-16, 03:53:04,VALID,1009.43,VALID,0,VALID,104,VALID,0,VALID,23.3433,VALID,76,VALID,0,
2012-11-16, 03:54:04,VALID,1009.46,VALID,0,VALID,104,VALID,0,VALID,23.361,VALID,75,VALID,0,
2012-11-16, 03:55:04,VALID,1009.44,VALID,0,VALID,104,VALID,0,VALID,23.3628,VALID,75,VALID,0,
2012-11-16, 03:56:04,VALID,1009.47,VALID,0,VALID,104,VALID,0,VALID,23.3433,VALID,76,VALID,0,
2012-11-16, 03:57:04,VALID,1009.48,VALID,0,VALID,104,VALID,0,VALID,23.3628,VALID,75,VALID,0,
2012-11-16, 03:58:04,VALID,1009.47,VALID,0,VALID,104,VALID,0,VALID,23.3238,VALID,75,VALID,0.183594,
2012-11-16, 03:59:04,VALID,1009.48,VALID,0,VALID,104,VALID,0,VALID,23.3628,VALID,75,VALID,0,
2012-11-16, 04:00:04,VALID,1009.47,VALID,0,VALID,104,VALID,0,VALID,23.3238,VALID,75,VALID,0,
2012-11-16, 04:01:04,VALID,1009.47,VALID,0,VALID,104,VALID,0,VALID,23.3433,VALID,75,VALID,0,